Location: Bottenau
(48.5138°N, 8.0462°E)
Time: 10:42:12
(UTC+00:00)

Spot 4 - Pass Details

Date: 18 April 2021
Orbit: 705 x 722 km, 98.3° (Epoch: 05 May)

Event Time Altitude Azimuth Distance (km) Brightness Sun altitude
Exits shadow 22:11:46 59° 29° (NNE) 834 4.2 -28.1°
Drops below altitude 10° 22:15:57 10° 351° (N) 2,222 7.3 -28.3°
Sets 22:18:15 0° 349° (NNW) 3,148 8.4 -28.4°
